weather.gov     
National Weather Service

Regional Weather Roundup
NWS Homepage
This page is being discontinued on March 12, 2014.
The same data is available at this site. Please update your bookmarks.
Thank you, and we apologize for the inconvenience.
Please send an email to SR-SRH.Webmaster@noaa.gov with any concerns.


Current Version
Previous Version:    01  02  03  04  05  06  07  08  09  10  11  12  13  14  15  16  17  18  19  20  21  22  23  24  25  26  27  28  
[Printable]
555
ASUS46 KPQR 191310
RWROR

OREGON REGIONAL WEATHER ROUNDUP
NATIONAL WEATHER SERVICE PORTLAND OR
600 AM PDT FRI SEP 19 2014

NOTE: "FAIR" INDICATES FEW OR NO CLOUDS BELOW 12,000 FEET WITH
NO SIGNIFICANT WEATHER AND/OR OBSTRUCTIONS TO VISIBILITY.

ORZ001>013-191400-
NORTHWEST OREGON


CITY           SKY/WX    TMP DP  RH WIND       PRES   REMARKS
ASTORIA        CLOUDY    61  59  93 SW3       30.04R
NEWPORT        CLOUDY    55  55 100 E3        30.09R
PORTLAND       CLOUDY    63  59  87 CALM      30.05R
VANCOUVER WA   MOCLDY    62  57  83 CALM      30.05R
SCAPPOOSE      CLOUDY    56  54  93 CALM      30.05R
HILLSBORO      MOCLDY    57  55  93 CALM      30.05R
AURORA         MOCLDY    58  56  93 CALM      30.06R
MCMINNVILLE    PTCLDY    56  54  93 CALM      30.06R
SALEM          CLEAR     54  51  90 CALM      30.05R
CORVALLIS      CLEAR     54  52  94 NW3       30.07R
EUGENE         PTCLDY    51  49  92 CALM      30.06R
$$

ORZ021-028-191400-
SOUTHWEST OREGON


CITY           SKY/WX    TMP DP  RH WIND       PRES   REMARKS
NORTH BEND     CLOUDY    54  54 100 CALM      30.05R VSB 1/4
BROOKINGS      SUNNY     59  58  96 NE3       29.97R
ROSEBURG       MOCLDY    58  54  86 CALM      30.04R
SEXTON SUMMIT  CLEAR     55  52  89 NE6       30.09R
MEDFORD        CLEAR     59  53  80 CALM      30.03R
$$

ORZ009-041-191400-
COLUMBIA GORGE


CITY           SKY/WX    TMP DP  RH WIND       PRES   REMARKS
TROUTDALE      CLOUDY    64  58  80 CALM      30.04R
THE DALLES     PTCLDY    63  54  72 W7        30.01R
$$

ORZ029>031-042>050-061>064-191400-
EASTERN OREGON


CITY           SKY/WX    TMP DP  RH WIND       PRES   REMARKS
REDMOND        PTCLDY    45  43  93 S6        30.09R
BEND           MOSUNNY   46  45  93 SW3       30.11R
KLAMATH FALLS  CLEAR     43  40  89 CALM      30.11R
LAKEVIEW       CLEAR     45  39  81 NW10      30.14S
HERMISTON      CLEAR     63  51  65 SW10      29.98R
PENDLETON      CLEAR     56  47  71 S9        30.01R
JOHN DAY       CLOUDY    57  49  75 SW3       30.10R
MEACHAM        CLOUDY    53  47  79 CALM      30.08S
LA GRANDE      CLOUDY    59  41  51 CALM      30.05R
BAKER CITY     MOCLDY    50  46  86 SE7       30.07R
BURNS          PTCLDY    41  40  96 NW6       30.13R
ROME             N/A     51  39  63 NE8       30.08R
ONTARIO        CLEAR     61  48  62 SW3       30.03R
$$




U.S. Dept. of Commerce
NOAA National Weather Service
1325 East West Highway
Silver Spring, MD 20910
E-mail: w-nws.webmaster@noaa.gov
Page last modified: May 16, 2007
NATIONAL WEATHER SERVICE: for Safety, for Work, for Fun - FOR LIFE